Regional Weather Roundup
Issued by NWS

Home | Current Version | Previous Version | Text Only | Print | Product List | Glossary On
Versions: 1 2 3 4 5 6 7 8 9 10 11 12 13 14 15 16 17 18 19 20 21 22 23 24 25 26 27 28 29 30 31 32 33 34 35 36 37 38 39 40 41 42 43 44 45 46 47 48 49 50
000
ASUS43 KLMK 231302
RWRKY
KENTUCKY REGIONAL WEATHER ROUNDUP
NATIONAL WEATHER SERVICE LOUISVILLE KY
900 AM EDT THU OCT 23 2014

NOTE "FAIR" INDICATES FEW OR NO CLOUDS BELOW 12,000 FEET
WITH NO SIGNIFICANT WEATHER AND/OR OBSTRUCTIONS TO VISIBILITY.

KYZ001>023-026-027-061>063-070>075-231400-
WESTERN AND SOUTH CENTRAL KENTUCKY

CITY           SKY/WX    TMP DP  RH WIND       PRES   REMARKS
PADUCAH        CLEAR     38  36  92 NW3       30.21S
HENDERSON        N/A    N/A N/A N/A E3        30.25R VSB 3/4
OWENSBORO      CLEAR     40  39  96 CALM      30.26R
HOPKINSVILLE   CLEAR     39  39 100 E5        30.23R
BOWLING GREEN  SUNNY     39  37  92 CALM      30.26R FOG
GLASGOW        SUNNY     38  38 100 CALM      30.24S FOG
$$

KYZ024-025-028>034-038-045-046-053-231400-
NORTH CENTRAL KENTUCKY

CITY           SKY/WX    TMP DP  RH WIND       PRES   REMARKS
LOUISVILLE/SDF MOSUNNY   42  39  89 SW7       30.26S
LOUISVILLE/LOU SUNNY     40  36  86 NW3       30.27R
FORT KNOX      SUNNY     38  36  95 NE2       30.24S
$$

KYZ035>037-039>044-047>052-055>060-089>105-231400-
NORTHEAST KENTUCKY

CITY           SKY/WX    TMP DP  RH WIND       PRES   REMARKS
LEXINGTON      MOSUNNY   48  38  68 E6        30.25S
COVINGTON      SUNNY     44  39  82 CALM      30.25S
FRANKFORT      SUNNY     42  38  85 CALM      30.24S
$$

KYZ054-064>069-076>088-106>120-231400-
SOUTHEAST KENTUCKY

CITY           SKY/WX    TMP DP  RH WIND       PRES   REMARKS
JACKSON        CLOUDY    46  38  73 NW5       30.23R
LONDON         CLOUDY    48  38  68 E3        30.24S
SOMERSET       CLOUDY    46  37  71 E7        30.25S
MIDDLESBORO    CLOUDY    47  39  74 NE3       30.24R
MONTICELLO     CLOUDY    48  42  80 E6        30.25S
$$




USA.gov is the U.S. government's official web portal to all federal, state and local government web resources and services.